Погода в Синицыне

Россия / Республика Крым     45°14′16″N   35°15′02″E
темп.,
°C
ветер,
м/с
пор.,
м/с
влажн.,
%
обл.,
%
осадки,
мм/ч
давл.,
гПа
погр.,
м
24 сентября, пт
пт2400:00+11зсз57695 0.0 1015324
03:00+11зсз577075 0.1 1015412
06:00+10з57785 0.0 1015348
09:00+13з57615 0.0 1015675
12:00+16з6845100 0.0 10141831
15:00+16юз4751100 0.0 10121592
18:00+15юз5859100 0.2 1012816
21:00+13ююз3781100 2.8 1011379
25 сентября, сб
сб2500:00+14з61182100 4.2 1010574
03:00+14з5107832 4.8 1010408
06:00+12зсз611794 0.1 1011420
09:00+14зсз8116817 0.1 1013850
12:00+17зсз8115699 0.2 10141720
15:00+18сз91147100 0.5 10152180
18:00+16сз685475 0.0 1017907
21:00+15з586062 0.0 1019570
26 сентября, вс
вс2600:00+13зюз58705 0.0 1020238
03:00+14зюз5126785 0.0 1020301
06:00+15зюз51066100 0.0 1020374
09:00+17зюз61164100 0.0 1020621
12:00+20з91259100 0.0 10201189
15:00+23з8115052 0.0 10191583
18:00+21з7115581 0.0 1018557
21:00+19з6107019 0.0 1019490
27 сентября, пн
пн2700:00+16зсз46788 0.0 1019151
03:00+16зсз347650 0.0 1018165
06:00+15ссз33713 0.0 1018273
09:00+17с44610 0.0 1019905
12:00+17с55584 0.0 10191008
15:00+16ссв55596 0.0 1019915
18:00+15ссв45554 0.0 1019435
21:00+14св23575 0.0 1020310
28 сентября, вт
вт2800:00+13зюз02595 0.0 1020322
03:00+13з336588 0.0 1020173
06:00+13юз226298 0.0 102070
09:00+15ссв135793 0.1 1021494
12:00+18св555062 0.2 10211575
15:00+17св765658 0.2 10211093
18:00+16всв686126 0.0 1022713
21:00+16всв576662 0.1 1022555